This is the latest recevied weather packets stored in our database for station/object W4ZHA. If no packets are shown the sender has not sent any weather packets the latest 10 day(s).
| Time | Temp. | Humidity | Pressure | Rain* | Wind** | Luminosity | Snow |
|---|---|---|---|---|---|---|---|
| 1777728652 | 13.89° C | 59% | 1015.5 hPa | 0 mm | - | 43 W/m² | - |
| 1777728349 | 13.89° C | 60% | 1015.8 hPa | 0 mm | - | 35 W/m² | - |
| 1777728046 | 13.33° C | 61% | 1015.8 hPa | 0 mm | - | 36 W/m² | - |
| 1777727743 | 13.33° C | 61% | 1015.8 hPa | 0 mm | - | 33 W/m² | - |
| 1777727440 | 13.33° C | 61% | 1015.5 hPa | 0 mm | - | 48 W/m² | - |
| 1777727137 | 12.78° C | 61% | 1015.5 hPa | 0 mm | - | 54 W/m² | - |
| 1777726836 | 12.78° C | 61% | 1015.1 hPa | 0 mm | - | 48 W/m² | - |
| 1777726531 | 12.78° C | 61% | 1015.5 hPa | 0 mm | - | 46 W/m² | - |
| 1777726229 | 12.78° C | 61% | 1015.5 hPa | 0 mm | - | 43 W/m² | - |
| 1777725925 | 12.78° C | 62% | 1015.5 hPa | 0 mm | - | 46 W/m² | - |
| 1777725623 | 12.78° C | 62% | 1015.5 hPa | 0 mm | - | 59 W/m² | - |
| 1777725321 | 12.78° C | 62% | 1015.5 hPa | 0 mm | - | 68 W/m² | - |
| 1777725017 | 12.78° C | 63% | 1015.5 hPa | 0 mm | - | 61 W/m² | - |
| 1777724714 | 12.22° C | 63% | 1015.1 hPa | 0 mm | - | 60 W/m² | - |
| 1777724411 | 12.22° C | 63% | 1015.5 hPa | 0 mm | - | 54 W/m² | - |
| 1777724109 | 12.22° C | 63% | 1015.5 hPa | 0 mm | - | 41 W/m² | - |
| 1777723806 | 12.22° C | 63% | 1015.1 hPa | 0 mm | - | 43 W/m² | - |
| 1777723502 | 11.67° C | 64% | 1015.1 hPa | 0 mm | - | 38 W/m² | - |
| 1777723199 | 11.67° C | 64% | 1015.1 hPa | 0 mm | - | 38 W/m² | - |
| 1777722896 | 11.67° C | 64% | 1015.1 hPa | 0 mm | - | 33 W/m² | - |
| 1777722592 | 11.67° C | 65% | 1015.1 hPa | 0 mm | - | 28 W/m² | - |
| 1777722289 | 11.67° C | 64% | 1015.1 hPa | 0 mm | - | 22 W/m² | - |
| 1777721986 | 11.67° C | 65% | 1014.8 hPa | 0 mm | - | 13 W/m² | - |
| 1777721684 | 11.67° C | 64% | 1015.1 hPa | 0 mm | - | 8 W/m² | - |
| 1777721383 | 11.67° C | 64% | 1015.1 hPa | 0 mm | - | 5 W/m² | - |
* Rain latest hour (hover to see other rain measurements)
** Current wind speed in m/s (hover to see current wind gust speed)